Location: Baix
(44.7118°N, 4.7648°E)
Time: 07:56:29
(UTC+00:00)

Cosmos 2322 Rocket - Visible Passes

Search period start: 30 November 2022 00:00
Search period end: 10 December 2022 00:00
Orbit: 833 x 850 km, 71.0° (Epoch: 29 November)

Date Brightness Start Highest point End Pass type
(mag) Time Alt. Az. Time Alt. Az. Time Alt. Az.
30 Nov 5.7 05:46:30 10° ESE 05:47:39 11° E 05:48:49 10° E visible
30 Nov 4.4 18:01:54 10° NW 18:06:26 26° WSW 18:10:56 10° SSW visible
01 Dec 4.4 17:46:44 10° NW 17:51:22 27° WSW 17:55:59 10° SSW visible
02 Dec 4.3 17:31:34 10° NW 17:36:18 28° WSW 17:41:00 10° SSW visible
03 Dec 4.3 17:16:25 10° NW 17:21:14 30° WSW 17:26:02 10° SSW visible
04 Dec 2.9 06:24:46 10° S 06:30:21 63° ESE 06:35:56 10° NNE visible
04 Dec 4.2 17:01:17 10° NW 17:06:10 32° WSW 17:11:02 10° SSW visible
05 Dec 2.9 06:09:43 10° S 06:15:16 59° ESE 06:20:49 10° NNE visible
05 Dec 4.2 16:46:08 10° NW 16:51:06 33° WSW 16:56:03 10° SSW visible
06 Dec 3.0 05:54:40 10° S 06:00:11 56° ESE 06:05:42 10° NNE visible
06 Dec 4.1 16:30:59 10° NW 16:36:02 35° WSW 16:41:03 10° S visible
07 Dec 3.1 05:39:37 10° S 05:45:06 53° ESE 05:50:35 10° NE visible
08 Dec 3.1 05:24:35 10° S 05:30:01 51° ESE 05:35:28 10° NE visible
09 Dec 3.2 05:09:32 10° S 05:14:56 48° ESE 05:20:20 10° NE visible
